This demonstration page uses our WeatherBlox Daily Observations layout. Learn more.

39.01783, -85.05884

Hourly Observations for June 24, 2019

Temp ( °F °C ) Dew Point ( °F °C ) Humidity (%) Winds ( mph kmh ) Pressure ( in mb ) Visibility ( mi km ) Precip ( " mm )
12:52 am 00:52 Mostly Cloudy 69 20.6 65 18.3 87 87 S 6 9 29.83 1010 10 16.09344 0 0
1:52 am 01:52 Mostly Cloudy 68 20 65 18.3 90 90 S 8 13 29.8 1009 10 16.09344 0 0
2:52 am 02:52 Mostly Cloudy 69 20.6 65 18.3 87 87 S 9 15 29.77 1008 10 16.09344 0 0
3:52 am 03:52 Clear 69 20.6 65 18.3 87 87 S 10 17 29.74 1007 10 16.09344 0 0
4:52 am 04:52 Mostly Clear 68 20 65 18.3 90 90 SSW 8 13 29.74 1007 10 16.09344 0 0
5:52 am 05:52 Partly Cloudy 67 19.4 65 18.3 93 93 SSW 7 11 29.77 1008 10 16.09344 0 0
6:52 am 06:52 Partly Cloudy 68 20 65 18.3 90 90 S 9 15 29.77 1008 10 16.09344 0 0
7:52 am 07:52 Mostly Cloudy 70 21.1 67 19.4 90 90 SSW 10 17 29.77 1008 10 16.09344 0 0
8:52 am 08:52 Mostly Cloudy 73 22.8 67 19.4 81 81 SW 14 22 29.77 1008 10 16.09344 0 0
9:52 am 09:52 Cloudy 73 22.8 67 19.4 81 81 SW 12 19 29.77 1008 10 16.09344 0 0
10:52 am 10:52 Cloudy 76 24.4 67 19.4 74 74 SSW 12 19 29.77 1008 10 16.09344 0 0
11:52 am 11:52 Cloudy 75 23.9 67 19.4 76 76 SW 9 15 29.77 1008 10 16.09344 0.001 0.001
12:52 pm 12:52 Cloudy 76 24.4 67 19.4 74 74 SSW 12 19 29.77 1008 10 16.09344 0 0
1:52 pm 13:52 Cloudy with Light Rain 74 23.3 67 19.4 79 79 SSW 12 19 29.74 1007 10 16.09344 0.001 0.001
2:52 pm 14:52 Cloudy 74 23.3 68 20 82 82 S 5 7 29.68 1005 10 16.09344 0.01 0.254
3:15 pm 15:15 Cloudy with Rain 73 22.8 68 20 84 84 S 3 6 29.71 1006 2.5 4.02336 0.03 0.762
3:46 pm 15:46 Cloudy with Heavy Rain 72 22 68 20 88 88 W 13 20 29.71 1006 1.5 2.414016 0.13 3.302
3:52 pm 15:52 Cloudy with Heavy Rain 70 21.1 68 20 93 93 W 17 28 29.71 1006 1 1.609344 0.31 7.874
4:10 pm 16:10 Cloudy with Rain 69 20.6 66 18.9 90 90 W 9 15 29.71 1006 2.5 4.02336 0.19 4.826
4:52 pm 16:52 Cloudy with Light Rain 72 22.2 68 20 87 87 W 6 9 29.68 1005 7 11.265408 0.28 7.112
5:09 pm 17:09 Cloudy 72 22.2 68 20 87 87 W 10 17 29.71 1006 10 16.09344 0.001 0.001
5:52 pm 17:52 Mostly Cloudy 73 22.8 67 19.4 81 81 WNW 14 22 29.71 1006 10 16.09344 0.001 0.001
6:52 pm 18:52 Mostly Cloudy 74 23.3 67 19.4 79 79 WSW 10 17 29.71 1006 10 16.09344 0 0
7:52 pm 19:52 Partly Cloudy 74 23.3 65 18.3 74 74 WSW 9 15 29.77 1008 10 16.09344 0 0
8:52 pm 20:52 Mostly Cloudy 72 22.2 65 18.3 79 79 SW 7 11 29.77 1008 10 16.09344 0 0
9:52 pm 21:52 Partly Cloudy 70 21.1 65 18.3 84 84 S 7 11 29.77 1008 10 16.09344 0 0
10:52 pm 22:52 Mostly Clear 70 21.1 65 18.3 84 84 SW 8 13 29.8 1009 10 16.09344 0 0
11:52 pm 23:52 Cloudy with Light Rain 71 21.7 65 18.3 81 81 SSW 9 15 29.8 1009 10 16.09344 0.001 0.001

Powered by AerisWeather